Time,TemperatureF,DewpointF,PressureIn,WindDirection,WindDirectionDegrees,WindSpeedMPH,WindSpeedGustMPH,Humidity,HourlyPrecipIn,Conditions,Clouds,dailyrainin,SoftwareType,DateUTC
2013-05-11 00:02:00,58.8,50.1,30.17,North,4,0.0,0.0,73,0.00,,OVC,0.00,WeatherDisplay:10.37,2013-05-11 07:02:00,
2013-05-11 00:07:00,58.6,50.3,30.17,North,5,0.0,0.0,74,0.00,,OVC,0.00,WeatherDisplay:10.37,2013-05-11 07:07:00,
2013-05-11 00:12:00,58.4,50.2,30.16,North,3,0.0,0.0,74,0.00,,OVC,0.00,WeatherDisplay:10.37,2013-05-11 07:12:00,
2013-05-11 00:17:00,58.3,50.4,30.17,North,6,0.0,0.0,75,0.00,,OVC,0.00,WeatherDisplay:10.37,2013-05-11 07:17:00,
2013-05-11 00:22:00,58.2,50.7,30.17,North,6,0.0,0.0,76,0.00,,OVC,0.00,WeatherDisplay:10.37,2013-05-11 07:22:00,
2013-05-11 00:27:00,58.2,51.0,30.17,North,6,0.0,0.0,77,0.00,,OVC,0.00,WeatherDisplay:10.37,2013-05-11 07:27:00,
2013-05-11 00:32:00,58.2,51.4,30.17,North,4,0.0,0.0,78,0.00,,OVC,0.00,WeatherDisplay:10.37,2013-05-11 07:32:00,
2013-05-11 00:37:00,58.2,51.4,30.17,North,3,0.0,0.0,78,0.00,,OVC,0.00,WeatherDisplay:10.37,2013-05-11 07:37:00,
2013-05-11 00:42:00,58.1,51.3,30.17,North,3,0.0,0.0,78,0.00,,OVC,0.00,WeatherDisplay:10.37,2013-05-11 07:42:00,
2013-05-11 00:47:00,58.1,51.3,30.17,North,3,0.0,0.0,78,0.00,,OVC,0.00,WeatherDisplay:10.37,2013-05-11 07:47:00,
2013-05-11 00:52:00,58.2,51.4,30.17,North,3,0.0,0.0,78,0.00,,OVC,0.00,WeatherDisplay:10.37,2013-05-11 07:52:00,
2013-05-11 00:57:00,58.2,51.4,30.18,North,3,0.0,0.0,78,0.00,,OVC,0.00,WeatherDisplay:10.37,2013-05-11 07:57:00,
2013-05-11 01:02:00,58.2,51.4,30.18,North,4,0.0,0.0,78,0.00,,OVC,0.00,WeatherDisplay:10.37,2013-05-11 08:02:00,
2013-05-11 01:07:00,58.2,51.4,30.18,North,6,0.0,0.0,78,0.00,,OVC,0.00,WeatherDisplay:10.37,2013-05-11 08:07:00,
2013-05-11 01:12:00,58.1,51.3,30.18,North,4,0.0,0.0,78,0.00,,OVC,0.00,WeatherDisplay:10.37,2013-05-11 08:12:00,
2013-05-11 01:17:00,58.1,51.3,30.18,North,6,0.0,0.0,78,0.00,,OVC,0.00,WeatherDisplay:10.37,2013-05-11 08:17:00,
2013-05-11 01:22:00,58.1,51.3,30.18,North,6,0.0,0.0,78,0.00,,OVC,0.00,WeatherDisplay:10.37,2013-05-11 08:22:00,
2013-05-11 01:27:00,58.1,51.2,30.18,North,4,0.0,0.0,78,0.00,,OVC,0.00,WeatherDisplay:10.37,2013-05-11 08:27:00,
2013-05-11 01:32:00,58.1,51.3,30.18,North,3,0.0,0.0,78,0.00,,OVC,0.00,WeatherDisplay:10.37,2013-05-11 08:32:00,
2013-05-11 01:37:00,58.0,51.2,30.18,North,6,0.0,0.0,78,0.00,,OVC,0.00,WeatherDisplay:10.37,2013-05-11 08:37:00,
2013-05-11 01:42:00,58.0,50.8,30.18,North,6,0.0,0.0,77,0.00,,OVC,0.00,WeatherDisplay:10.37,2013-05-11 08:42:00,
2013-05-11 01:47:00,57.8,50.6,30.18,North,5,0.0,0.0,77,0.00,,OVC,0.00,WeatherDisplay:10.37,2013-05-11 08:47:00,
2013-05-11 01:52:00,57.8,50.6,30.18,North,4,0.0,0.0,77,0.00,,OVC,0.00,WeatherDisplay:10.37,2013-05-11 08:52:00,
2013-05-11 01:57:00,57.7,50.5,30.18,North,6,0.0,0.0,77,0.00,,OVC,0.00,WeatherDisplay:10.37,2013-05-11 08:57:00,
2013-05-11 02:02:00,57.6,50.8,30.18,North,5,0.0,0.0,78,0.00,,OVC,0.00,WeatherDisplay:10.37,2013-05-11 09:02:00,
2013-05-11 02:07:00,57.5,50.7,30.17,North,3,0.0,0.0,78,0.00,,OVC,0.00,WeatherDisplay:10.37,2013-05-11 09:07:00,
2013-05-11 02:12:00,57.3,50.5,30.17,North,6,0.0,0.0,78,0.00,,OVC,0.00,WeatherDisplay:10.37,2013-05-11 09:12:00,
2013-05-11 02:17:00,57.2,50.4,30.17,North,5,0.0,0.0,78,0.00,,OVC,0.00,WeatherDisplay:10.37,2013-05-11 09:17:00,
2013-05-11 02:22:00,57.1,50.4,30.17,North,2,0.0,0.0,78,0.00,,OVC,0.00,WeatherDisplay:10.37,2013-05-11 09:22:00,
2013-05-11 02:27:00,57.1,50.3,30.17,North,5,0.0,0.0,78,0.00,,OVC,0.00,WeatherDisplay:10.37,2013-05-11 09:27:00,
2013-05-11 02:32:00,57.3,50.5,30.17,North,6,0.0,0.0,78,0.00,,OVC,0.00,WeatherDisplay:10.37,2013-05-11 09:32:00,
2013-05-11 02:37:00,57.3,50.5,30.17,North,3,0.0,0.0,78,0.00,,OVC,0.00,WeatherDisplay:10.37,2013-05-11 09:37:00,
2013-05-11 02:42:00,57.4,50.2,30.17,North,3,0.0,0.0,77,0.00,,OVC,0.00,WeatherDisplay:10.37,2013-05-11 09:42:00,
2013-05-11 02:47:00,57.6,50.4,30.18,North,3,0.0,0.0,77,0.00,,OVC,0.00,WeatherDisplay:10.37,2013-05-11 09:47:00,
2013-05-11 02:52:00,57.8,50.3,30.18,North,5,0.0,0.0,76,0.00,,OVC,0.00,WeatherDisplay:10.37,2013-05-11 09:52:00,
2013-05-11 02:57:00,57.9,50.4,30.18,North,4,0.0,0.0,76,0.00,,OVC,0.00,WeatherDisplay:10.37,2013-05-11 09:57:00,
2013-05-11 03:02:00,57.9,50.4,30.18,North,2,0.0,0.0,76,0.00,,OVC,0.00,WeatherDisplay:10.37,2013-05-11 10:02:00,
2013-05-11 03:07:00,57.9,50.4,30.18,North,5,0.0,0.0,76,0.00,,OVC,0.00,WeatherDisplay:10.37,2013-05-11 10:07:00,
2013-05-11 03:12:00,57.8,50.3,30.18,North,7,0.0,0.0,76,0.00,,OVC,0.00,WeatherDisplay:10.37,2013-05-11 10:12:00,
2013-05-11 03:17:00,57.6,50.1,30.18,North,6,0.0,0.0,76,0.00,,OVC,0.00,WeatherDisplay:10.37,2013-05-11 10:17:00,
2013-05-11 03:22:00,57.5,50.0,30.18,North,4,0.0,0.0,76,0.00,,OVC,0.00,WeatherDisplay:10.37,2013-05-11 10:22:00,
2013-05-11 03:27:00,57.4,50.2,30.19,North,3,0.0,0.0,77,0.00,,OVC,0.00,WeatherDisplay:10.37,2013-05-11 10:27:00,
2013-05-11 03:32:00,57.2,50.0,30.18,North,3,0.0,0.0,77,0.00,,OVC,0.00,WeatherDisplay:10.37,2013-05-11 10:32:00,
2013-05-11 03:37:00,57.0,49.9,30.18,North,4,0.0,0.0,77,0.00,,OVC,0.00,WeatherDisplay:10.37,2013-05-11 10:37:00,
2013-05-11 03:42:00,56.9,49.8,30.18,North,5,0.0,0.0,77,0.00,,OVC,0.00,WeatherDisplay:10.37,2013-05-11 10:42:00,
2013-05-11 03:47:00,56.7,49.9,30.18,North,3,0.0,0.0,78,0.00,,OVC,0.00,WeatherDisplay:10.37,2013-05-11 10:47:00,
2013-05-11 03:52:00,56.6,49.8,30.17,North,3,0.0,0.0,78,0.00,,OVC,0.00,WeatherDisplay:10.37,2013-05-11 10:52:00,
2013-05-11 03:57:00,56.5,49.7,30.18,North,4,0.0,0.0,78,0.00,,OVC,0.00,WeatherDisplay:10.37,2013-05-11 10:57:00,
2013-05-11 04:02:00,56.5,50.1,30.17,North,4,0.0,0.0,79,0.00,,OVC,0.00,WeatherDisplay:10.37,2013-05-11 11:02:00,
2013-05-11 04:07:00,56.5,50.1,30.17,North,6,0.0,0.0,79,0.00,,OVC,0.00,WeatherDisplay:10.37,2013-05-11 11:07:00,
2013-05-11 04:12:00,56.4,50.0,30.17,North,6,0.0,0.0,79,0.00,,OVC,0.00,WeatherDisplay:10.37,2013-05-11 11:12:00,
2013-05-11 04:17:00,56.5,50.0,30.17,North,4,0.0,0.0,79,0.00,,OVC,0.00,WeatherDisplay:10.37,2013-05-11 11:17:00,
2013-05-11 04:22:00,56.5,50.1,30.17,North,3,0.0,0.0,79,0.00,,OVC,0.00,WeatherDisplay:10.37,2013-05-11 11:22:00,
2013-05-11 04:27:00,56.5,50.1,30.17,North,3,0.0,0.0,79,0.00,,OVC,0.00,WeatherDisplay:10.37,2013-05-11 11:27:00,
2013-05-11 04:32:00,56.4,50.0,30.16,North,3,0.0,0.0,79,0.00,,OVC,0.00,WeatherDisplay:10.37,2013-05-11 11:32:00,
2013-05-11 04:37:00,56.3,49.9,30.16,North,3,0.0,0.0,79,0.00,,OVC,0.00,WeatherDisplay:10.37,2013-05-11 11:37:00,
2013-05-11 04:42:00,56.2,49.8,30.15,North,3,0.0,0.0,79,0.00,,OVC,0.00,WeatherDisplay:10.37,2013-05-11 11:42:00,
2013-05-11 04:47:00,56.1,49.6,30.15,North,5,0.0,0.0,79,0.00,,OVC,0.00,WeatherDisplay:10.37,2013-05-11 11:47:00,
2013-05-11 04:52:00,55.9,49.5,30.15,North,6,0.0,0.0,79,0.00,,OVC,0.00,WeatherDisplay:10.37,2013-05-11 11:52:00,
2013-05-11 04:57:00,55.9,49.5,30.15,North,4,0.0,0.0,79,0.00,,OVC,0.00,WeatherDisplay:10.37,2013-05-11 11:57:00,
2013-05-11 05:02:00,55.8,49.7,30.14,North,2,0.0,0.0,80,0.00,,OVC,0.00,WeatherDisplay:10.37,2013-05-11 12:02:00,
2013-05-11 05:07:00,55.7,49.6,30.15,North,5,0.0,0.0,80,0.00,CLR,OVC,0.00,WeatherDisplay:10.37,2013-05-11 12:07:00,
2013-05-11 05:12:00,55.7,49.6,30.15,North,6,0.0,0.0,80,0.00,CLR,OVC,0.00,WeatherDisplay:10.37,2013-05-11 12:12:00,
2013-05-11 05:17:00,55.7,49.6,30.16,North,4,0.0,0.0,80,0.00,CLR,OVC,0.00,WeatherDisplay:10.37,2013-05-11 12:17:00,
2013-05-11 05:22:00,55.7,49.6,30.16,North,5,0.0,0.0,80,0.00,CLR,OVC,0.00,WeatherDisplay:10.37,2013-05-11 12:22:00,
2013-05-11 05:27:00,55.7,49.6,30.16,North,4,0.0,0.0,80,0.00,CLR,OVC,0.00,WeatherDisplay:10.37,2013-05-11 12:27:00,
2013-05-11 05:32:00,55.8,49.7,30.17,North,4,0.0,0.0,80,0.00,CLR,OVC,0.00,WeatherDisplay:10.37,2013-05-11 12:32:00,
2013-05-11 05:37:00,55.8,49.7,30.17,North,2,0.0,0.0,80,0.00,CLR,OVC,0.00,WeatherDisplay:10.37,2013-05-11 12:37:00,
2013-05-11 05:42:00,55.7,49.7,30.16,North,1,0.0,0.0,80,0.00,CLR,OVC,0.00,WeatherDisplay:10.37,2013-05-11 12:42:00,
2013-05-11 05:47:00,55.7,49.6,30.16,North,4,0.0,0.0,80,0.00,CLR,OVC,0.00,WeatherDisplay:10.37,2013-05-11 12:47:00,
2013-05-11 05:52:00,55.7,49.6,30.16,North,4,0.0,0.0,80,0.00,CLR,OVC,0.00,WeatherDisplay:10.37,2013-05-11 12:52:00,
2013-05-11 05:57:00,55.7,49.6,30.15,North,4,0.0,0.0,80,0.00,CLR,OVC,0.00,WeatherDisplay:10.37,2013-05-11 12:57:00,
2013-05-11 06:02:00,55.7,49.6,30.15,North,6,0.0,0.0,80,0.00,CLR,OVC,0.00,WeatherDisplay:10.37,2013-05-11 13:02:00,
2013-05-11 06:07:00,55.7,49.6,30.15,North,6,0.0,0.0,80,0.00,CLR,OVC,0.00,WeatherDisplay:10.37,2013-05-11 13:07:00,
2013-05-11 06:12:00,55.7,49.7,30.15,North,3,0.0,0.0,80,0.00,CLR,OVC,0.00,WeatherDisplay:10.37,2013-05-11 13:12:00,
2013-05-11 06:17:00,55.8,49.7,30.15,North,3,0.0,0.0,80,0.00,CLR,OVC,0.00,WeatherDisplay:10.37,2013-05-11 13:17:00,
2013-05-11 06:22:00,55.8,49.4,30.15,North,5,0.0,0.0,79,0.00,CLR,OVC,0.00,WeatherDisplay:10.37,2013-05-11 13:22:00,
2013-05-11 06:27:00,55.9,49.5,30.16,North,3,0.0,0.0,79,0.00,CLR,OVC,0.00,WeatherDisplay:10.37,2013-05-11 13:27:00,
2013-05-11 06:32:00,56.1,50.0,30.16,North,4,0.0,0.0,80,0.00,CLR,OVC,0.00,WeatherDisplay:10.37,2013-05-11 13:32:00,
2013-05-11 06:37:00,56.1,50.0,30.16,North,4,0.0,0.0,80,0.00,CLR,OVC,0.00,WeatherDisplay:10.37,2013-05-11 13:37:00,
2013-05-11 06:42:00,56.2,50.1,30.16,North,5,0.0,0.0,80,0.00,CLR,OVC,0.00,WeatherDisplay:10.37,2013-05-11 13:42:00,
2013-05-11 06:47:00,56.3,50.2,30.16,North,4,0.0,0.0,80,0.00,CLR,OVC,0.00,WeatherDisplay:10.37,2013-05-11 13:47:00,
2013-05-11 06:52:00,56.4,50.3,30.16,North,4,0.0,0.0,80,0.00,CLR,OVC,0.00,WeatherDisplay:10.37,2013-05-11 13:52:00,
2013-05-11 06:57:00,56.7,50.6,30.16,North,4,0.0,0.0,80,0.00,CLR,OVC,0.00,WeatherDisplay:10.37,2013-05-11 13:57:00,
2013-05-11 07:02:00,57.0,50.6,30.16,North,4,0.0,0.0,79,0.00,CLR,OVC,0.00,WeatherDisplay:10.37,2013-05-11 14:02:00,
2013-05-11 07:07:00,57.7,50.8,30.16,North,5,0.0,0.0,78,0.00,CLR,OVC,0.00,WeatherDisplay:10.37,2013-05-11 14:07:00,
2013-05-11 07:12:00,58.4,51.5,30.16,North,4,0.0,0.0,78,0.00,CLR,OVC,0.00,WeatherDisplay:10.37,2013-05-11 14:12:00,
2013-05-11 07:17:00,58.9,51.7,30.16,North,3,0.0,0.0,77,0.00,CLR,OVC,0.00,WeatherDisplay:10.37,2013-05-11 14:17:00,
2013-05-11 07:22:00,59.3,51.7,30.16,North,3,0.0,0.0,76,0.00,CLR,OVC,0.00,WeatherDisplay:10.37,2013-05-11 14:22:00,
2013-05-11 07:27:00,59.6,51.3,30.16,North,3,0.0,0.0,74,0.00,CLR,OVC,0.00,WeatherDisplay:10.37,2013-05-11 14:27:00,
2013-05-11 07:32:00,59.9,51.6,30.16,North,5,0.0,0.0,74,0.00,CLR,OVC,0.00,WeatherDisplay:10.37,2013-05-11 14:32:00,
2013-05-11 07:37:00,59.9,51.2,30.16,North,5,0.0,0.0,73,0.00,CLR,OVC,0.00,WeatherDisplay:10.37,2013-05-11 14:37:00,
2013-05-11 07:42:00,59.8,49.6,30.16,North,3,0.0,0.0,69,0.00,CLR,OVC,0.00,WeatherDisplay:10.37,2013-05-11 14:42:00,
2013-05-11 07:47:00,59.8,50.8,30.16,North,2,0.0,0.0,72,0.00,CLR,OVC,0.00,WeatherDisplay:10.37,2013-05-11 14:47:00,
2013-05-11 07:52:00,59.9,50.8,30.16,North,3,0.0,0.0,72,0.00,CLR,OVC,0.00,WeatherDisplay:10.37,2013-05-11 14:52:00,
2013-05-11 07:57:00,60.0,51.3,30.16,North,3,0.0,0.0,73,0.00,CLR,OVC,0.00,WeatherDisplay:10.37,2013-05-11 14:57:00,
2013-05-11 08:02:00,59.9,49.3,30.16,North,1,0.0,0.0,68,0.00,CLR,OVC,0.00,WeatherDisplay:10.37,2013-05-11 15:02:00,
2013-05-11 08:07:00,59.9,49.7,30.16,North,3,0.0,0.0,69,0.00,CLR,OVC,0.00,WeatherDisplay:10.37,2013-05-11 15:07:00,
2013-05-11 08:12:00,59.9,50.5,30.16,North,2,0.0,0.0,71,0.00,CLR,OVC,0.00,WeatherDisplay:10.37,2013-05-11 15:12:00,
2013-05-11 08:17:00,60.0,50.6,30.16,North,1,0.0,0.0,71,0.00,CLR,OVC,0.00,WeatherDisplay:10.37,2013-05-11 15:17:00,
2013-05-11 08:22:00,60.1,50.7,30.16,North,3,0.0,0.0,71,0.00,CLR,OVC,0.00,WeatherDisplay:10.37,2013-05-11 15:22:00,
2013-05-11 08:27:00,60.3,50.8,30.16,North,1,0.0,0.0,71,0.00,CLR,OVC,0.00,WeatherDisplay:10.37,2013-05-11 15:27:00,
2013-05-11 08:32:00,60.4,50.6,30.16,North,2,0.0,0.0,70,0.00,CLR,OVC,0.00,WeatherDisplay:10.37,2013-05-11 15:32:00,
2013-05-11 08:37:00,60.5,50.3,30.16,North,4,0.0,0.0,69,0.00,CLR,OVC,0.00,WeatherDisplay:10.37,2013-05-11 15:37:00,
2013-05-11 08:42:00,60.6,50.8,30.17,North,3,0.0,0.0,70,0.00,CLR,OVC,0.00,WeatherDisplay:10.37,2013-05-11 15:42:00,
2013-05-11 08:47:00,60.7,49.7,30.17,North,2,0.0,0.0,67,0.00,CLR,OVC,0.00,WeatherDisplay:10.37,2013-05-11 15:47:00,
2013-05-11 08:52:00,60.7,48.4,30.17,North,1,0.0,0.0,64,0.00,CLR,OVC,0.00,WeatherDisplay:10.37,2013-05-11 15:52:00,
2013-05-11 08:57:00,60.9,47.8,30.17,North,3,0.0,0.0,62,0.00,CLR,OVC,0.00,WeatherDisplay:10.37,2013-05-11 15:57:00,
2013-05-11 09:02:00,61.3,48.6,30.16,North,3,0.0,0.0,63,0.00,CLR,OVC,0.00,WeatherDisplay:10.37,2013-05-11 16:02:00,
2013-05-11 09:07:00,61.7,49.0,30.16,North,3,0.0,0.0,63,0.00,CLR,OVC,0.00,WeatherDisplay:10.37,2013-05-11 16:07:00,
2013-05-11 09:12:00,62.1,47.6,30.16,North,2,0.0,0.0,59,0.00,CLR,OVC,0.00,WeatherDisplay:10.37,2013-05-11 16:12:00,
2013-05-11 09:17:00,62.3,49.5,30.16,North,1,0.0,0.0,63,0.00,CLR,OVC,0.00,WeatherDisplay:10.37,2013-05-11 16:17:00,
2013-05-11 09:22:00,62.7,50.3,30.16,North,2,0.0,0.0,64,0.00,CLR,OVC,0.00,WeatherDisplay:10.37,2013-05-11 16:22:00,
2013-05-11 09:27:00,63.1,52.4,30.15,North,2,0.0,0.0,68,0.00,CLR,OVC,0.00,WeatherDisplay:10.37,2013-05-11 16:27:00,
2013-05-11 09:32:00,63.6,51.6,30.15,North,2,0.0,0.0,65,0.00,CLR,OVC,0.00,WeatherDisplay:10.37,2013-05-11 16:32:00,
2013-05-11 09:37:00,64.1,52.1,30.15,North,1,0.0,0.0,65,0.00,CLR,OVC,0.00,WeatherDisplay:10.37,2013-05-11 16:37:00,
2013-05-11 09:42:00,64.5,52.4,30.14,North,1,0.0,0.0,65,0.00,CLR,OVC,0.00,WeatherDisplay:10.37,2013-05-11 16:42:00,
2013-05-11 09:47:00,64.9,52.5,30.14,North,1,0.0,0.0,64,0.00,CLR,OVC,0.00,WeatherDisplay:10.37,2013-05-11 16:47:00,
2013-05-11 09:52:00,65.5,51.2,30.14,North,1,0.0,0.0,60,0.00,CLR,OVC,0.00,WeatherDisplay:10.37,2013-05-11 16:52:00,
2013-05-11 09:57:00,66.2,54.1,30.14,North,1,0.0,0.0,65,0.00,CLR,OVC,0.00,WeatherDisplay:10.37,2013-05-11 16:57:00,
2013-05-11 10:02:00,67.3,55.5,30.14,North,1,0.0,0.0,66,0.00,CLR,OVC,0.00,WeatherDisplay:10.37,2013-05-11 17:02:00,
2013-05-11 10:07:00,68.2,55.2,30.14,North,3,0.0,0.0,63,0.00,CLR,OVC,0.00,WeatherDisplay:10.37,2013-05-11 17:07:00,
2013-05-11 10:12:00,68.7,53.3,30.14,North,3,0.0,0.0,58,0.00,CLR,OVC,0.00,WeatherDisplay:10.37,2013-05-11 17:12:00,
2013-05-11 10:17:00,68.9,54.5,30.13,North,1,0.0,0.0,60,0.00,CLR,OVC,0.00,WeatherDisplay:10.37,2013-05-11 17:17:00,
2013-05-11 10:22:00,69.7,56.6,30.13,North,1,0.0,0.0,63,0.00,CLR,OVC,0.00,WeatherDisplay:10.37,2013-05-11 17:22:00,
2013-05-11 10:27:00,70.8,56.2,30.13,North,2,0.0,0.0,60,0.00,CLR,OVC,0.00,WeatherDisplay:10.37,2013-05-11 17:27:00,
2013-05-11 10:32:00,71.9,55.8,30.13,North,2,0.0,0.0,57,0.00,CLR,OVC,0.00,WeatherDisplay:10.37,2013-05-11 17:32:00,
2013-05-11 10:37:00,73.3,58.1,30.13,North,1,0.0,0.0,59,0.00,CLR,OVC,0.00,WeatherDisplay:10.37,2013-05-11 17:37:00,
2013-05-11 10:42:00,74.7,56.9,30.12,North,1,0.0,0.0,54,0.00,CLR,OVC,0.00,WeatherDisplay:10.37,2013-05-11 17:42:00,
2013-05-11 10:47:00,75.6,57.8,30.12,North,2,0.0,0.0,54,0.00,CLR,OVC,0.00,WeatherDisplay:10.37,2013-05-11 17:47:00,
2013-05-11 10:52:00,75.8,57.4,30.12,North,2,0.0,0.0,53,0.00,CLR,OVC,0.00,WeatherDisplay:10.37,2013-05-11 17:52:00,
2013-05-11 10:57:00,75.9,58.1,30.13,North,1,0.0,0.0,54,0.00,CLR,OVC,0.00,WeatherDisplay:10.37,2013-05-11 17:57:00,
2013-05-11 11:02:00,75.9,57.5,30.13,North,3,0.0,0.0,53,0.00,CLR,OVC,0.00,WeatherDisplay:10.37,2013-05-11 18:02:00,
2013-05-11 11:07:00,75.9,57.0,30.13,North,2,0.0,0.0,52,0.00,CLR,OVC,0.00,WeatherDisplay:10.37,2013-05-11 18:07:00,
2013-05-11 11:12:00,76.1,57.2,30.13,North,1,0.0,0.0,52,0.00,CLR,OVC,0.00,WeatherDisplay:10.37,2013-05-11 18:12:00,
2013-05-11 11:17:00,76.5,56.5,30.12,North,1,0.0,0.0,50,0.00,CLR,OVC,0.00,WeatherDisplay:10.37,2013-05-11 18:17:00,
2013-05-11 11:22:00,76.6,57.1,30.12,North,1,0.0,0.0,51,0.00,CLR,OVC,0.00,WeatherDisplay:10.37,2013-05-11 18:22:00,
2013-05-11 11:27:00,76.8,57.8,30.12,North,1,0.0,0.0,52,0.00,CLR,OVC,0.00,WeatherDisplay:10.37,2013-05-11 18:27:00,
2013-05-11 11:32:00,76.8,55.6,30.12,North,1,0.0,0.0,48,0.00,CLR,OVC,0.00,WeatherDisplay:10.37,2013-05-11 18:32:00,
2013-05-11 11:37:00,76.9,55.7,30.12,North,1,0.0,0.0,48,0.00,CLR,OVC,0.00,WeatherDisplay:10.37,2013-05-11 18:37:00,
2013-05-11 11:42:00,76.7,55.0,30.12,North,1,0.0,0.0,47,0.00,CLR,OVC,0.00,WeatherDisplay:10.37,2013-05-11 18:42:00,
2013-05-11 11:47:00,76.8,57.8,30.12,North,1,0.0,0.0,52,0.00,CLR,OVC,0.00,WeatherDisplay:10.37,2013-05-11 18:47:00,
2013-05-11 11:52:00,77.0,57.5,30.12,North,2,0.0,0.0,51,0.00,CLR,OVC,0.00,WeatherDisplay:10.37,2013-05-11 18:52:00,
2013-05-11 11:57:00,77.1,56.5,30.12,North,3,0.0,0.0,49,0.00,CLR,OVC,0.00,WeatherDisplay:10.37,2013-05-11 18:57:00,
2013-05-11 12:02:00,77.5,59.5,30.11,North,2,0.0,0.0,54,0.00,CLR,OVC,0.00,WeatherDisplay:10.37,2013-05-11 19:02:00,
2013-05-11 12:07:00,77.6,55.8,30.11,North,1,0.0,0.0,47,0.00,CLR,OVC,0.00,WeatherDisplay:10.37,2013-05-11 19:07:00,
2013-05-11 12:12:00,77.7,55.9,30.11,North,1,0.0,0.0,47,0.00,CLR,OVC,0.00,WeatherDisplay:10.37,2013-05-11 19:12:00,
2013-05-11 12:17:00,77.9,57.8,30.11,North,1,0.0,0.0,50,0.00,CLR,OVC,0.00,WeatherDisplay:10.37,2013-05-11 19:17:00,
2013-05-11 12:22:00,78.4,58.7,30.11,North,1,0.0,0.0,51,0.00,CLR,OVC,0.00,WeatherDisplay:10.37,2013-05-11 19:22:00,
2013-05-11 12:27:00,78.8,55.7,30.10,North,1,0.0,0.0,45,0.00,CLR,OVC,0.00,WeatherDisplay:10.37,2013-05-11 19:27:00,
2013-05-11 12:32:00,79.5,57.5,30.10,North,2,0.0,0.0,47,0.00,CLR,OVC,0.00,WeatherDisplay:10.37,2013-05-11 19:32:00,
2013-05-11 12:37:00,80.2,56.9,30.10,North,3,0.0,0.0,45,0.00,CLR,OVC,0.00,WeatherDisplay:10.37,2013-05-11 19:37:00,
2013-05-11 12:42:00,80.2,57.0,30.10,North,2,0.0,0.0,45,0.00,CLR,OVC,0.00,WeatherDisplay:10.37,2013-05-11 19:42:00,
2013-05-11 12:47:00,80.3,58.2,30.10,North,1,0.0,0.0,47,0.00,CLR,OVC,0.00,WeatherDisplay:10.37,2013-05-11 19:47:00,
2013-05-11 12:52:00,80.7,58.0,30.10,North,1,0.0,0.0,46,0.00,CLR,OVC,0.00,WeatherDisplay:10.37,2013-05-11 19:52:00,
2013-05-11 12:57:00,81.1,57.7,30.10,North,2,0.0,0.0,45,0.00,CLR,OVC,0.00,WeatherDisplay:10.37,2013-05-11 19:57:00,
2013-05-11 13:02:00,81.2,57.8,30.10,North,3,0.0,0.0,45,0.00,CLR,OVC,0.00,WeatherDisplay:10.37,2013-05-11 20:02:00,
2013-05-11 13:07:00,81.2,55.9,30.10,North,2,0.0,0.0,42,0.00,CLR,OVC,0.00,WeatherDisplay:10.37,2013-05-11 20:07:00,
2013-05-11 13:12:00,80.8,57.5,30.10,North,1,0.0,0.0,45,0.00,CLR,OVC,0.00,WeatherDisplay:10.37,2013-05-11 20:12:00,
2013-05-11 13:17:00,80.4,56.5,30.10,North,1,0.0,0.0,44,0.00,CLR,OVC,0.00,WeatherDisplay:10.37,2013-05-11 20:17:00,
2013-05-11 13:22:00,80.3,56.4,30.09,North,1,0.0,0.0,44,0.00,CLR,OVC,0.00,WeatherDisplay:10.37,2013-05-11 20:22:00,
2013-05-11 13:27:00,80.1,55.6,30.09,North,1,0.0,0.0,43,0.00,CLR,OVC,0.00,WeatherDisplay:10.37,2013-05-11 20:27:00,
2013-05-11 13:32:00,79.9,54.8,30.09,North,1,0.0,0.0,42,0.00,CLR,OVC,0.00,WeatherDisplay:10.37,2013-05-11 20:32:00,
2013-05-11 13:37:00,79.9,57.3,30.09,North,1,0.0,0.0,46,0.00,CLR,OVC,0.00,WeatherDisplay:10.37,2013-05-11 20:37:00,
2013-05-11 13:42:00,79.9,54.1,30.09,North,1,0.0,0.0,41,0.00,CLR,OVC,0.00,WeatherDisplay:10.37,2013-05-11 20:42:00,
2013-05-11 13:52:00,79.7,55.2,30.09,North,1,0.0,0.0,43,0.00,CLR,OVC,0.00,WeatherDisplay:10.37,2013-05-11 20:52:00,
2013-05-11 13:57:00,79.9,56.0,30.09,North,1,0.0,0.0,44,0.00,CLR,OVC,0.00,WeatherDisplay:10.37,2013-05-11 20:57:00,
2013-05-11 14:02:00,80.3,54.5,30.09,North,1,0.0,0.0,41,0.00,CLR,OVC,0.00,WeatherDisplay:10.37,2013-05-11 21:02:00,
2013-05-11 14:07:00,80.7,56.8,30.09,North,1,0.0,0.0,44,0.00,CLR,OVC,0.00,WeatherDisplay:10.37,2013-05-11 21:07:00,
2013-05-11 14:12:00,81.2,57.2,30.09,North,1,0.0,0.0,44,0.00,CLR,OVC,0.00,WeatherDisplay:10.37,2013-05-11 21:12:00,
2013-05-11 14:17:00,81.8,58.4,30.09,North,1,0.0,0.0,45,0.00,CLR,OVC,0.00,WeatherDisplay:10.37,2013-05-11 21:17:00,
2013-05-11 14:22:00,82.5,58.4,30.09,North,3,0.0,0.0,44,0.00,CLR,OVC,0.00,WeatherDisplay:10.37,2013-05-11 21:22:00,
2013-05-11 14:27:00,82.9,54.6,30.08,North,1,0.0,0.0,38,0.00,CLR,OVC,0.00,WeatherDisplay:10.37,2013-05-11 21:27:00,
2013-05-11 14:32:00,82.7,53.7,30.08,North,2,0.0,0.0,37,0.00,CLR,OVC,0.00,WeatherDisplay:10.37,2013-05-11 21:32:00,
2013-05-11 14:37:00,82.7,58.6,30.08,North,1,0.0,0.0,44,0.00,CLR,OVC,0.00,WeatherDisplay:10.37,2013-05-11 21:37:00,
2013-05-11 14:42:00,83.2,57.8,30.08,North,1,0.0,0.0,42,0.00,CLR,OVC,0.00,WeatherDisplay:10.37,2013-05-11 21:42:00,
2013-05-11 14:47:00,83.9,57.0,30.08,North,1,0.0,0.0,40,0.00,CLR,OVC,0.00,WeatherDisplay:10.37,2013-05-11 21:47:00,
2013-05-11 14:52:00,84.5,55.4,30.08,North,1,0.0,0.0,37,0.00,CLR,OVC,0.00,WeatherDisplay:10.37,2013-05-11 21:52:00,
2013-05-11 14:57:00,84.6,56.2,30.07,North,3,0.0,0.0,38,0.00,CLR,OVC,0.00,WeatherDisplay:10.37,2013-05-11 21:57:00,
2013-05-11 15:02:00,84.7,56.3,30.07,North,1,0.0,0.0,38,0.00,CLR,OVC,0.00,WeatherDisplay:10.37,2013-05-11 22:02:00,
2013-05-11 15:07:00,84.9,55.7,30.07,North,1,0.0,0.0,37,0.00,CLR,OVC,0.00,WeatherDisplay:10.37,2013-05-11 22:07:00,
2013-05-11 15:12:00,85.0,56.6,30.07,North,1,0.0,0.0,38,0.00,CLR,OVC,0.00,WeatherDisplay:10.37,2013-05-11 22:12:00,
2013-05-11 15:17:00,85.2,56.7,30.07,North,1,0.0,0.0,38,0.00,CLR,OVC,0.00,WeatherDisplay:10.37,2013-05-11 22:17:00,
2013-05-11 15:22:00,85.1,57.4,30.07,North,1,0.0,0.0,39,0.00,CLR,OVC,0.00,WeatherDisplay:10.37,2013-05-11 22:22:00,
2013-05-11 15:27:00,84.8,59.2,30.06,North,1,0.0,0.0,42,0.00,CLR,OVC,0.00,WeatherDisplay:10.37,2013-05-11 22:27:00,
2013-05-11 15:32:00,84.4,58.1,30.06,North,1,0.0,0.0,41,0.00,CLR,OVC,0.00,WeatherDisplay:10.37,2013-05-11 22:32:00,
2013-05-11 15:37:00,83.9,55.6,30.06,North,3,0.0,0.0,38,0.00,CLR,OVC,0.00,WeatherDisplay:10.37,2013-05-11 22:37:00,
2013-05-11 15:42:00,83.4,57.3,30.06,North,3,0.0,0.0,41,0.00,CLR,OVC,0.00,WeatherDisplay:10.37,2013-05-11 22:42:00,
2013-05-11 15:47:00,83.3,58.5,30.06,North,1,0.0,0.0,43,0.00,CLR,OVC,0.00,WeatherDisplay:10.37,2013-05-11 22:47:00,
2013-05-11 15:52:00,83.6,57.4,30.05,North,1,0.0,0.0,41,0.00,CLR,OVC,0.00,WeatherDisplay:10.37,2013-05-11 22:52:00,
2013-05-11 15:57:00,84.1,57.9,30.05,North,1,0.0,0.0,41,0.00,CLR,OVC,0.00,WeatherDisplay:10.37,2013-05-11 22:57:00,
2013-05-11 16:02:00,84.7,57.7,30.05,North,1,0.0,0.0,40,0.00,CLR,OVC,0.00,WeatherDisplay:10.37,2013-05-11 23:02:00,
2013-05-11 16:07:00,85.0,56.6,30.05,North,3,0.0,0.0,38,0.00,CLR,OVC,0.00,WeatherDisplay:10.37,2013-05-11 23:07:00,
2013-05-11 16:12:00,85.6,55.6,30.05,North,3,0.0,0.0,36,0.00,CLR,OVC,0.00,WeatherDisplay:10.37,2013-05-11 23:12:00,
2013-05-11 16:17:00,85.6,57.8,30.05,North,1,0.0,0.0,39,0.00,CLR,OVC,0.00,WeatherDisplay:10.37,2013-05-11 23:17:00,
2013-05-11 16:22:00,85.7,56.4,30.05,North,2,0.0,0.0,37,0.00,CLR,OVC,0.00,WeatherDisplay:10.37,2013-05-11 23:22:00,
2013-05-11 16:27:00,85.9,56.6,30.05,North,2,0.0,0.0,37,0.00,CLR,OVC,0.00,WeatherDisplay:10.37,2013-05-11 23:27:00,
2013-05-11 16:32:00,86.2,56.1,30.05,North,1,0.0,0.0,36,0.00,CLR,OVC,0.00,WeatherDisplay:10.37,2013-05-11 23:32:00,
2013-05-11 16:37:00,86.5,58.6,30.05,North,2,0.0,0.0,39,0.00,CLR,OVC,0.00,WeatherDisplay:10.37,2013-05-11 23:37:00,
2013-05-11 16:42:00,87.0,57.6,30.05,North,2,0.0,0.0,37,0.00,CLR,OVC,0.00,WeatherDisplay:10.37,2013-05-11 23:42:00,
2013-05-11 16:47:00,87.5,57.3,30.05,North,1,0.0,0.0,36,0.00,CLR,OVC,0.00,WeatherDisplay:10.37,2013-05-11 23:47:00,
2013-05-11 16:52:00,87.5,55.7,30.05,North,1,0.0,0.0,34,0.00,CLR,OVC,0.00,WeatherDisplay:10.37,2013-05-11 23:52:00,
2013-05-11 16:57:00,87.3,55.5,30.04,North,3,0.0,0.0,34,0.00,CLR,OVC,0.00,WeatherDisplay:10.37,2013-05-11 23:57:00,
2013-05-11 17:02:00,87.2,58.5,30.04,North,3,0.0,0.0,38,0.00,CLR,OVC,0.00,WeatherDisplay:10.37,2013-05-12 00:02:00,
2013-05-11 17:07:00,86.9,55.9,30.05,North,2,0.0,0.0,35,0.00,CLR,OVC,0.00,WeatherDisplay:10.37,2013-05-12 00:07:00,
2013-05-11 17:12:00,86.7,55.8,30.05,North,3,0.0,0.0,35,0.00,CLR,OVC,0.00,WeatherDisplay:10.37,2013-05-12 00:12:00,
2013-05-11 17:17:00,86.2,54.5,30.04,North,1,0.0,0.0,34,0.00,CLR,OVC,0.00,WeatherDisplay:10.37,2013-05-12 00:17:00,
2013-05-11 17:22:00,85.4,55.4,30.04,North,1,0.0,0.0,36,0.00,CLR,OVC,0.00,WeatherDisplay:10.37,2013-05-12 00:22:00,
2013-05-11 17:27:00,84.9,55.7,30.04,North,2,0.0,0.0,37,0.00,CLR,OVC,0.00,WeatherDisplay:10.37,2013-05-12 00:27:00,
2013-05-11 17:32:00,84.7,54.8,30.04,North,3,0.0,0.0,36,0.00,CLR,OVC,0.00,WeatherDisplay:10.37,2013-05-12 00:32:00,
2013-05-11 17:37:00,83.9,54.1,30.04,North,2,0.0,0.0,36,0.00,CLR,OVC,0.00,WeatherDisplay:10.37,2013-05-12 00:37:00,
2013-05-11 17:42:00,83.1,53.3,30.04,North,1,0.0,0.0,36,0.00,CLR,OVC,0.00,WeatherDisplay:10.37,2013-05-12 00:42:00,
2013-05-11 17:47:00,82.4,52.7,30.03,North,2,0.0,0.0,36,0.00,CLR,OVC,0.00,WeatherDisplay:10.37,2013-05-12 00:47:00,
2013-05-11 17:52:00,81.6,54.3,30.03,North,2,0.0,0.0,39,0.00,CLR,OVC,0.00,WeatherDisplay:10.37,2013-05-12 00:52:00,
2013-05-11 17:57:00,81.1,53.8,30.03,North,1,0.0,0.0,39,0.00,CLR,OVC,0.00,WeatherDisplay:10.37,2013-05-12 00:57:00,
2013-05-11 18:02:00,80.2,53.0,30.02,North,2,0.0,0.0,39,0.00,CLR,OVC,0.00,WeatherDisplay:10.37,2013-05-12 01:02:00,
2013-05-11 18:07:00,79.8,52.6,30.02,North,3,0.0,0.0,39,0.00,CLR,OVC,0.00,WeatherDisplay:10.37,2013-05-12 01:07:00,
2013-05-11 18:12:00,79.5,53.1,30.02,North,3,0.0,0.0,40,0.00,CLR,OVC,0.00,WeatherDisplay:10.37,2013-05-12 01:12:00,
2013-05-11 18:17:00,79.4,53.6,30.02,North,2,0.0,0.0,41,0.00,CLR,OVC,0.00,WeatherDisplay:10.37,2013-05-12 01:17:00,
2013-05-11 18:22:00,79.1,53.4,30.01,North,3,0.0,0.0,41,0.00,CLR,OVC,0.00,WeatherDisplay:10.37,2013-05-12 01:22:00,
2013-05-11 18:27:00,79.0,54.6,30.01,North,3,0.0,0.0,43,0.00,CLR,OVC,0.00,WeatherDisplay:10.37,2013-05-12 01:27:00,
2013-05-11 18:32:00,78.9,53.8,30.01,North,3,0.0,0.0,42,0.00,CLR,OVC,0.00,WeatherDisplay:10.37,2013-05-12 01:32:00,
2013-05-11 18:37:00,78.7,55.0,30.01,North,3,0.0,0.0,44,0.00,CLR,OVC,0.00,WeatherDisplay:10.37,2013-05-12 01:37:00,
2013-05-11 18:42:00,78.5,53.5,30.01,North,5,0.0,0.0,42,0.00,CLR,OVC,0.00,WeatherDisplay:10.37,2013-05-12 01:42:00,
2013-05-11 18:47:00,78.1,56.3,30.01,North,4,0.0,0.0,47,0.00,CLR,OVC,0.00,WeatherDisplay:10.37,2013-05-12 01:47:00,
2013-05-11 18:52:00,77.6,55.2,30.01,North,2,0.0,0.0,46,0.00,CLR,OVC,0.00,WeatherDisplay:10.37,2013-05-12 01:52:00,
2013-05-11 18:57:00,77.2,53.0,30.01,North,1,0.0,0.0,43,0.00,CLR,OVC,0.00,WeatherDisplay:10.37,2013-05-12 01:57:00,
2013-05-11 19:02:00,76.9,54.5,30.01,North,1,0.0,0.0,46,0.00,,OVC,0.00,WeatherDisplay:10.37,2013-05-12 02:02:00,
2013-05-11 19:07:00,76.5,53.6,30.01,North,2,0.0,0.0,45,0.00,,OVC,0.00,WeatherDisplay:10.37,2013-05-12 02:07:00,
2013-05-11 19:12:00,76.2,56.7,30.01,North,3,0.0,0.0,51,0.00,,OVC,0.00,WeatherDisplay:10.37,2013-05-12 02:12:00,
2013-05-11 19:17:00,75.9,55.9,30.01,North,3,0.0,0.0,50,0.00,,OVC,0.00,WeatherDisplay:10.37,2013-05-12 02:17:00,
2013-05-11 19:22:00,75.7,55.2,30.01,North,6,0.0,0.0,49,0.00,,OVC,0.00,WeatherDisplay:10.37,2013-05-12 02:22:00,
2013-05-11 19:27:00,75.4,56.5,30.01,North,5,0.0,0.0,52,0.00,,OVC,0.00,WeatherDisplay:10.37,2013-05-12 02:27:00,
2013-05-11 19:32:00,75.3,57.5,30.01,North,3,0.0,0.0,54,0.00,,OVC,0.00,WeatherDisplay:10.37,2013-05-12 02:32:00,
2013-05-11 19:37:00,75.2,56.8,30.01,North,3,0.0,0.0,53,0.00,,OVC,0.00,WeatherDisplay:10.37,2013-05-12 02:37:00,
2013-05-11 19:42:00,74.8,56.0,30.02,North,3,0.0,0.0,52,0.00,,OVC,0.00,WeatherDisplay:10.37,2013-05-12 02:42:00,
2013-05-11 19:47:00,74.1,55.3,30.01,North,3,0.0,0.0,52,0.00,,OVC,0.00,WeatherDisplay:10.37,2013-05-12 02:47:00,
2013-05-11 19:52:00,73.4,55.2,30.01,North,4,0.0,0.0,53,0.00,,OVC,0.00,WeatherDisplay:10.37,2013-05-12 02:52:00,
2013-05-11 19:57:00,72.8,54.7,30.01,North,4,0.0,0.0,53,0.00,,OVC,0.00,WeatherDisplay:10.37,2013-05-12 02:57:00,
2013-05-11 20:02:00,72.2,54.7,30.01,North,6,0.0,0.0,54,0.00,CLR,OVC,0.00,WeatherDisplay:10.37,2013-05-12 03:02:00,
2013-05-11 20:07:00,71.7,54.7,30.01,North,6,0.0,0.0,55,0.00,CLR,OVC,0.00,WeatherDisplay:10.37,2013-05-12 03:07:00,
2013-05-11 20:12:00,71.4,55.4,30.01,North,5,0.0,0.0,57,0.00,CLR,OVC,0.00,WeatherDisplay:10.37,2013-05-12 03:12:00,
2013-05-11 20:17:00,71.0,54.5,30.01,North,4,0.0,0.0,56,0.00,CLR,OVC,0.00,WeatherDisplay:10.37,2013-05-12 03:17:00,
2013-05-11 20:22:00,70.5,54.5,30.01,North,6,0.0,0.0,57,0.00,CLR,OVC,0.00,WeatherDisplay:10.37,2013-05-12 03:22:00,
2013-05-11 20:27:00,70.1,54.2,30.01,North,3,0.0,0.0,57,0.00,CLR,OVC,0.00,WeatherDisplay:10.37,2013-05-12 03:27:00,
2013-05-11 20:32:00,69.7,54.3,30.01,North,1,0.0,0.0,58,0.00,CLR,OVC,0.00,WeatherDisplay:10.37,2013-05-12 03:32:00,
2013-05-11 20:37:00,69.4,54.0,30.01,North,4,0.0,0.0,58,0.00,CLR,OVC,0.00,WeatherDisplay:10.37,2013-05-12 03:37:00,
2013-05-11 20:42:00,69.2,54.3,30.01,North,6,0.0,0.0,59,0.00,CLR,OVC,0.00,WeatherDisplay:10.37,2013-05-12 03:42:00,
2013-05-11 20:47:00,69.2,53.8,30.01,North,5,0.0,0.0,58,0.00,CLR,OVC,0.00,WeatherDisplay:10.37,2013-05-12 03:47:00,
2013-05-11 20:52:00,68.9,54.0,30.02,North,4,0.0,0.0,59,0.00,CLR,OVC,0.00,WeatherDisplay:10.37,2013-05-12 03:52:00,
2013-05-11 20:57:00,68.7,54.2,30.02,North,5,0.0,0.0,60,0.00,CLR,OVC,0.00,WeatherDisplay:10.37,2013-05-12 03:57:00,
2013-05-11 21:02:00,68.3,53.4,30.02,North,6,0.0,0.0,59,0.00,,OVC,0.00,WeatherDisplay:10.37,2013-05-12 04:02:00,
2013-05-11 21:07:00,67.7,53.7,30.02,North,5,0.0,0.0,61,0.00,,OVC,0.00,WeatherDisplay:10.37,2013-05-12 04:07:00,
2013-05-11 21:12:00,67.2,53.3,30.02,North,3,0.0,0.0,61,0.00,,OVC,0.00,WeatherDisplay:10.37,2013-05-12 04:12:00,
2013-05-11 21:17:00,66.8,52.9,30.03,North,3,0.0,0.0,61,0.00,,OVC,0.00,WeatherDisplay:10.37,2013-05-12 04:17:00,
2013-05-11 21:22:00,66.7,52.8,30.03,North,6,0.0,0.0,61,0.00,,OVC,0.00,WeatherDisplay:10.37,2013-05-12 04:22:00,
2013-05-11 21:27:00,66.6,53.2,30.04,North,7,0.0,0.0,62,0.00,,OVC,0.00,WeatherDisplay:10.37,2013-05-12 04:27:00,
2013-05-11 21:32:00,66.6,53.1,30.04,North,6,0.0,0.0,62,0.00,,OVC,0.00,WeatherDisplay:10.37,2013-05-12 04:32:00,
2013-05-11 21:37:00,66.4,53.0,30.04,North,4,0.0,0.0,62,0.00,,OVC,0.00,WeatherDisplay:10.37,2013-05-12 04:37:00,
2013-05-11 21:42:00,66.4,54.2,30.05,North,3,0.0,0.0,65,0.00,,OVC,0.00,WeatherDisplay:10.37,2013-05-12 04:42:00,
2013-05-11 21:47:00,66.2,54.5,30.05,North,4,0.0,0.0,66,0.00,,OVC,0.00,WeatherDisplay:10.37,2013-05-12 04:47:00,
2013-05-11 21:52:00,66.0,54.3,30.05,North,6,0.0,0.0,66,0.00,,OVC,0.00,WeatherDisplay:10.37,2013-05-12 04:52:00,
2013-05-11 21:57:00,65.9,54.2,30.05,North,5,0.0,0.0,66,0.00,,OVC,0.00,WeatherDisplay:10.37,2013-05-12 04:57:00,
2013-05-11 22:02:00,65.8,54.6,30.06,North,3,0.0,0.0,67,0.00,CLR,OVC,0.00,WeatherDisplay:10.37,2013-05-12 05:02:00,
2013-05-11 22:07:00,65.4,53.7,30.06,North,2,0.0,0.0,66,0.00,CLR,OVC,0.00,WeatherDisplay:10.37,2013-05-12 05:07:00,
2013-05-11 22:12:00,64.9,53.7,30.06,North,6,0.0,0.0,67,0.00,CLR,OVC,0.00,WeatherDisplay:10.37,2013-05-12 05:12:00,
2013-05-11 22:17:00,64.6,53.4,30.06,North,5,0.0,0.0,67,0.00,CLR,OVC,0.00,WeatherDisplay:10.37,2013-05-12 05:17:00,
2013-05-11 22:22:00,64.2,53.4,30.06,North,2,0.0,0.0,68,0.00,CLR,OVC,0.00,WeatherDisplay:10.37,2013-05-12 05:22:00,
2013-05-11 22:27:00,63.8,53.0,30.06,North,5,0.0,0.0,68,0.00,CLR,OVC,0.00,WeatherDisplay:10.37,2013-05-12 05:27:00,
2013-05-11 22:32:00,63.5,53.1,30.06,North,5,0.0,0.0,69,0.00,CLR,OVC,0.00,WeatherDisplay:10.37,2013-05-12 05:32:00,
2013-05-11 22:37:00,63.1,52.8,30.06,North,3,0.0,0.0,69,0.00,CLR,OVC,0.00,WeatherDisplay:10.37,2013-05-12 05:37:00,
2013-05-11 22:42:00,62.9,52.6,30.06,North,4,0.0,0.0,69,0.00,CLR,OVC,0.00,WeatherDisplay:10.37,2013-05-12 05:42:00,
2013-05-11 22:47:00,62.7,52.8,30.05,North,6,0.0,0.0,70,0.00,CLR,OVC,0.00,WeatherDisplay:10.37,2013-05-12 05:47:00,
2013-05-11 22:52:00,62.6,53.1,30.05,North,3,0.0,0.0,71,0.00,CLR,OVC,0.00,WeatherDisplay:10.37,2013-05-12 05:52:00,
2013-05-11 22:57:00,62.4,52.4,30.05,North,2,0.0,0.0,70,0.00,CLR,OVC,0.00,WeatherDisplay:10.37,2013-05-12 05:57:00,
2013-05-11 23:02:00,62.2,52.3,30.05,North,5,0.0,0.0,70,0.00,CLR,OVC,0.00,WeatherDisplay:10.37,2013-05-12 06:02:00,
2013-05-11 23:07:00,62.1,52.6,30.05,North,5,0.0,0.0,71,0.00,CLR,OVC,0.00,WeatherDisplay:10.37,2013-05-12 06:07:00,
2013-05-11 23:12:00,62.1,52.5,30.04,North,3,0.0,0.0,71,0.00,CLR,OVC,0.00,WeatherDisplay:10.37,2013-05-12 06:12:00,
2013-05-11 23:17:00,62.1,52.6,30.04,North,6,0.0,0.0,71,0.00,CLR,OVC,0.00,WeatherDisplay:10.37,2013-05-12 06:17:00,
2013-05-11 23:22:00,62.1,52.6,30.04,North,5,0.0,0.0,71,0.00,CLR,OVC,0.00,WeatherDisplay:10.37,2013-05-12 06:22:00,
2013-05-11 23:27:00,61.8,52.3,30.04,North,3,0.0,0.0,71,0.00,CLR,OVC,0.00,WeatherDisplay:10.37,2013-05-12 06:27:00,
2013-05-11 23:32:00,61.5,52.1,30.03,North,4,0.0,0.0,71,0.00,CLR,OVC,0.00,WeatherDisplay:10.37,2013-05-12 06:32:00,
2013-05-11 23:37:00,61.3,52.2,30.03,North,6,0.0,0.0,72,0.00,CLR,OVC,0.00,WeatherDisplay:10.37,2013-05-12 06:37:00,
2013-05-11 23:42:00,61.2,52.5,30.03,North,6,0.0,0.0,73,0.00,CLR,OVC,0.00,WeatherDisplay:10.37,2013-05-12 06:42:00,
2013-05-11 23:47:00,61.1,52.4,30.03,North,3,0.0,0.0,73,0.00,CLR,OVC,0.00,WeatherDisplay:10.37,2013-05-12 06:47:00,
2013-05-11 23:52:00,61.0,52.3,30.03,North,4,0.0,0.0,73,0.00,CLR,OVC,0.00,WeatherDisplay:10.37,2013-05-12 06:52:00,
2013-05-11 23:57:00,60.8,52.1,30.03,North,4,0.0,0.0,73,0.00,CLR,OVC,0.00,WeatherDisplay:10.37,2013-05-12 06:57:00,